Weather Roundup
Issued by NWS

Home | Current Version | Previous Version | Graphics & Text | Print | Product List | Glossary Off
Versions: 1 2 3 4 5 6 7 8 9 10 11 12 13 14 15 16 17 18 19 20 21 22 23 24 25 26 27 28 29 30 31 32 33 34 35 36 37 38 39 40 41 42 43 44 45 46 47 48 49 50

000
NZUS93 KARX 201559
HRRWXR

CURRENT HOURLY OBSERVATIONS ACROSS
MUCH OF THE UPPER MISSISSIPPI VALLEY
NATIONAL WEATHER SERVICE LA CROSSE WI
1100 AM CDT SUN APR 20 2014


...SOUTHEAST MINNESOTA...


CITY           SKY/WX    TMP DP  RH WIND       PRES   REMARKS
ROCHESTER      LGT RAIN  54  51  90 S12       30.07S FOG
ROCHESTER/MAYO CLOUDY    55  52  91 SW12      30.07R
WINONA           N/A    N/A N/A N/A MISG        N/A
AUSTIN         LGT RAIN  55  52  88 S8        30.06S
ALBERT LEA     CLOUDY    57  55  94 SE7       30.04F FOG
DODGE CENTER   PTSUNNY   59  54  82 S10       30.05
PRESTON        LGT RAIN  53  51  95 S7        30.08S
OWATONNA       MOSUNNY   61  52  72 S7        30.05S
FARIBAULT      CLOUDY    64  50  59 S6        30.05S
$$

...ELSEWHERE IN MINNESOTA...


CITY           SKY/WX    TMP DP  RH WIND       PRES   REMARKS
MINNEAPOLIS    PTSUNNY   63  41  44 E6        30.04S
INTNL FALLS    SUNNY     47  32  56 VRB6      30.03F
DULUTH         SUNNY     55  35  47 W3        30.03S
RED WING       PTSUNNY   61  52  72 SE3       30.05R
REDWOOD FALLS  SUNNY     64  44  48 S3        30.02S
MANKATO        CLOUDY    61  52  72 E7        30.04S
WORTHINGTON    SUNNY     64  34  32 E13       30.04R
FAIRMONT       CLOUDY    57  48  72 SE3       30.03S
$$

...SOUTHWEST WISCONSIN...


CITY           SKY/WX    TMP DP  RH WIND       PRES   REMARKS
LA CROSSE      LGT RAIN  54  50  86 S7        30.09R
PRAIRIE DU CHI DRIZZLE   61  44  52 CALM      30.11S
BOSCOBEL       CLOUDY    66  43  43 W6        30.11S
LONE ROCK      NOT AVBL
PLATTEVILLE    PTSUNNY   65  41  42 S13       30.13S
FORT MC COY    RAIN      54  48  81 SW5       30.10S
VIROQUA        CLOUDY    53  48  84 CALM      30.12R
WIS DELLS      PTSUNNY   63  39  40 SW12G17   30.11S
$$

...ELSEWHERE IN WISCONSIN...


CITY           SKY/WX    TMP DP  RH WIND       PRES   REMARKS
MILWAUKEE      PTSUNNY   65  36  34 S15       30.17F
MADISON        PTSUNNY   67  41  38 S16       30.12F
GREEN BAY      LGT RAIN  50  43  77 S6        30.14R
EAU CLAIRE     NOT AVBL
BLACK RVR FLS  DRIZZLE   54  53  99 CALM      30.08R
MEDFORD        MOSUNNY   56  50  81 SW10      30.07S
WAUSAU         CLOUDY    55  48  77 SW8       30.07S
WIS RAPIDS     LGT RAIN  52  49  89 S7        30.11S
MARSHFIELD     CLOUDY    57  49  74 SW15      30.08R
RICE LAKE      SUNNY     56  55  95 CALM      30.06S
$$

...NORTHEAST IOWA...


CITY           SKY/WX    TMP DP  RH WIND       PRES   REMARKS
WATERLOO       LGT RAIN  54  49  83 MISG      30.09R
DUBUQUE        PTSUNNY   69  45  41 SW17      30.11S
DECORAH        LGT RAIN  54  50  87 VRB3      30.10S
MASON CITY     LGT RAIN  53  52  96 SE14      30.02F FOG
CHARLES CITY   LGT RAIN  52  50  93 S6        30.10R
OELWEIN        CLOUDY   N/A N/A N/A S5G12     30.11S
$$

...ELSEWHERE IN IOWA...


CITY           SKY/WX    TMP DP  RH WIND       PRES   REMARKS
DES MOINES     PTSUNNY   76  51  41 S15G22    30.04F
IOWA CITY      MOSUNNY   73  47  39 S10       30.12S
FORT DODGE     PTSUNNY   64  54  68 CALM      30.04R
MARSHALLTOWN   CLOUDY    66  50  56 S8        30.06S
CEDAR RAPIDS   FAIR      73  46  38 S12       30.08F
$$

...NORTHERN ILLINOIS...


CITY           SKY/WX    TMP DP  RH WIND       PRES   REMARKS
CHICAGO-OHARE  PTSUNNY   68  36  30 S13       30.19F
DUPAGE         SUNNY     66  38  35 S15       30.19F
CHICAGO-MIDWAY PTSUNNY   66  37  34 S12       30.20F
MOLINE         SUNNY     74  43  32 SW12      30.13R
ROCKFORD       MOSUNNY   68  40  35 S17       30.17F
STERLING       SUNNY     73  45  35 S6G17     30.15S
PEORIA         MOSUNNY   69  42  37 S13       30.18F
$$

NOTE: "FAIR" INDICATES FEW OR NO CLOUDS BELOW 12,000 FEET WITH NO
SIGNIFICANT WEATHER AND/OR OBSTRUCTIONS TO VISIBILITY. WIND
SPEEDS ARE IN MILES-PER-HOUR.



USA.gov is the U.S. government's official web portal to all federal, state and local government web resources and services.